START_TIME,STEP,MOV.,H8,t_acc.,H43,t_acc.,M25,t_acc.,H9,t_acc.
1979-03-01 06:00:18.950 ,7,0,0.,12.0,0.,12.0,0.,12.0,0.,12.0
1979-03-01 06:00:30.950 ,7,0,0.,12.0,0.,12.0,0.,12.0,0.,12.0
1979-03-01 06:00:42.950 ,7,0,0.,12.0,0.,12.0,0.,12.0,0.,12.0
1979-03-01 06:00:54.950 ,7,0,0.,12.0,0.,12.0,0.,12.0,0.,12.0
1979-03-01 06:01:06.950 ,6,0,0.,12.0,0.,12.0,0.,12.0,0.,12.0
1979-03-01 06:01:18.950 ,6,0,0.,12.0,0.,12.0,0.,12.0,0.,12.0
1979-03-01 06:01:30.950 ,5,0,0.,12.0,0.,12.0,0.,12.0,0.,12.0
1979-03-01 06:01:42.950 ,5,0,0.,12.0,0.,12.0,0.,12.0,0.,12.0
1979-03-01 06:01:54.950 ,4,0,0.,12.0,0.,12.0,0.,12.0,0.,12.0
1979-03-01 06:02:06.950 ,4,0,0.,12.0,0.,12.0,0.,12.0,0.,12.0
1979-03-01 06:02:18.950 ,3,0,0.,12.0,0.,12.0,0.,12.0,0.,12.0
1979-03-01 06:02:30.950 ,3,0,0.,12.0,0.,12.0,0.,12.0,0.,12.0
1979-03-01 06:02:42.950 ,2,0,0.,12.0,0.,12.0,0.,12.0,0.,12.0
1979-03-01 06:02:54.950 ,2,0,0.,12.0,0.,12.0,0.,12.0,0.,12.0
1979-03-01 06:03:06.950 ,1,0,0.,12.0,0.,12.0,0.,12.0,0.,12.0
1979-03-01 06:03:18.950 ,1,0,0.,12.0,0.,12.0,0.,12.0,0.,12.0
1979-03-01 06:03:30.950 ,0,0,0.,12.0,0.,12.0,0.,12.0,0.,12.0
1979-03-01 06:03:42.950 ,0,0,0.,12.0,0.,12.0,0.,12.0,0.,12.0
1979-03-01 06:13:30.950 ,0,0,0.,12.0,0.,12.0,0.,12.0,0.,12.0
1979-03-01 06:13:42.950 ,0,0,0.,12.0,0.,12.0,0.,12.0,0.,12.0
1979-03-01 06:13:54.950 ,6,0,0.,12.0,0.,12.0,0.,12.0,0.,12.0
1979-03-01 06:14:06.950 ,6,0,0.,12.0,0.,12.0,0.,12.0,0.,12.0
1979-03-01 06:14:18.950 ,5,0,0.,12.0,0.,12.0,0.,12.0,0.,12.0
1979-03-01 06:14:30.950 ,5,0,0.,12.0,0.,12.0,0.,12.0,0.,12.0
1979-03-01 06:14:42.950 ,4,0,0.,12.0,0.,12.0,0.,12.0,0.,12.0
1979-03-01 06:14:54.950 ,4,0,0.,12.0,0.,12.0,0.,12.0,0.,12.0
1979-03-01 06:15:06.950 ,3,0,0.,12.0,0.,12.0,0.,12.0,0.,12.0
1979-03-01 06:15:18.950 ,3,0,0.,12.0,0.,12.0,0.,12.0,0.,12.0
1979-03-01 06:15:30.950 ,2,0,0.,12.0,0.,12.0,0.,12.0,0.,12.0
1979-03-01 06:15:42.950 ,2,0,0.,12.0,0.,12.0,0.,12.0,0.,12.0
1979-03-01 06:15:54.950 ,1,0,0.,12.0,0.,12.0,0.,12.0,0.,12.0
1979-03-01 06:16:06.950 ,1,0,0.,12.0,0.,12.0,0.,12.0,0.,12.0
1979-03-01 06:16:18.950 ,0,0,0.,12.0,0.,12.0,0.,12.0,0.,12.0
1979-03-01 06:16:30.950 ,0,0,0.,12.0,0.,12.0,0.,12.0,0.,12.0
1979-03-01 06:16:42.950 ,0,0,0.,12.0,0.,12.0,0.,12.0,0.,12.0
1979-03-01 06:16:54.950 ,0,0,0.,12.0,0.,12.0,0.,12.0,0.,12.0
1979-03-01 06:17:06.950 ,1,0,0.,12.0,0.,12.0,0.,12.0,0.,12.0
1979-03-01 06:17:18.950 ,1,0,0.,12.0,0.,12.0,0.,12.0,0.,12.0
1979-03-01 06:17:30.950 ,2,0,0.,12.0,0.,12.0,0.,12.0,0.,12.0
1979-03-01 06:17:42.950 ,2,0,0.,12.0,0.,12.0,0.,12.0,0.,12.0
1979-03-01 06:17:54.950 ,3,0,0.,12.0,0.,12.0,0.,12.0,0.,12.0
1979-03-01 06:18:06.950 ,3,0,0.,12.0,0.,12.0,0.,12.0,0.,12.0
1979-03-01 06:18:18.950 ,4,0,0.,12.0,0.,12.0,0.,12.0,0.,12.0
1979-03-01 06:18:30.950 ,4,0,0.,12.0,0.,12.0,0.,12.0,0.,12.0
1979-03-01 06:18:42.950 ,5,0,0.,12.0,0.,12.0,0.,12.0,0.,12.0
1979-03-01 06:18:54.950 ,5,0,0.,12.0,0.,12.0,0.,12.0,0.,12.0
1979-03-01 06:19:06.950 ,6,0,0.,12.0,0.,12.0,0.,12.0,0.,12.0
1979-03-01 06:19:18.950 ,6,0,0.,12.0,0.,12.0,0.,12.0,0.,12.0
1979-03-01 06:19:30.950 ,7,0,0.,12.0,0.,12.0,0.,12.0,0.,12.0
1979-03-01 06:19:42.950 ,7,0,0.,12.0,0.,12.0,0.,12.0,0.,12.0
1979-03-01 06:19:54.950 ,7,0,0.,12.0,0.,12.0,0.,12.0,0.,12.0
1979-03-01 06:20:06.950 ,7,0,0.,12.0,0.,12.0,0.,12.0,0.,12.0
1979-03-01 06:20:18.950 ,6,0,0.,12.0,0.,12.0,0.,12.0,0.,12.0
1979-03-01 06:20:30.950 ,6,0,0.,12.0,0.,12.0,0.,12.0,0.,12.0
1979-03-01 06:20:42.950 ,5,0,0.,12.0,0.,12.0,0.,12.0,0.,12.0
1979-03-01 06:20:54.950 ,5,0,0.,12.0,0.,12.0,0.,12.0,0.,12.0
1979-03-01 06:21:06.950 ,4,0,0.,12.0,0.,12.0,0.,12.0,0.,12.0
1979-03-01 06:21:18.950 ,4,0,0.,12.0,0.,12.0,0.,12.0,0.,12.0
1979-03-01 06:21:30.950 ,3,0,0.,12.0,0.,12.0,0.,12.0,0.,12.0
1979-03-01 06:21:42.950 ,3,0,0.,12.0,0.,12.0,0.,12.0,0.,12.0
1979-03-01 06:21:54.950 ,2,0,0.,12.0,0.,12.0,0.,12.0,0.,12.0
1979-03-01 06:22:06.950 ,2,0,0.,12.0,0.,12.0,0.,12.0,0.,12.0
1979-03-01 06:22:18.950 ,1,0,0.,12.0,0.,12.0,0.,12.0,0.,12.0
1979-03-01 06:22:30.950 ,1,0,0.,12.0,0.,12.0,0.,12.0,0.,12.0
1979-03-01 06:22:42.950 ,0,0,0.,12.0,0.,12.0,0.,12.0,0.,12.0
1979-03-01 06:22:54.950 ,0,0,1.,12.0,0.,12.0,0.,12.0,0.,12.0
1979-03-01 06:23:06.950 ,0,0,0.,12.0,0.,12.0,0.,12.0,0.,12.0
1979-03-01 06:23:18.950 ,0,0,0.,12.0,0.,12.0,0.,12.0,0.,12.0
1979-03-01 06:23:30.950 ,1,0,0.,12.0,0.,12.0,0.,12.0,0.,12.0
1979-03-01 06:23:42.950 ,1,0,0.,12.0,0.,12.0,0.,12.0,0.,12.0
1979-03-01 06:23:54.950 ,2,0,0.,12.0,0.,12.0,0.,12.0,0.,12.0
1979-03-01 06:24:06.950 ,2,0,0.,12.0,0.,12.0,0.,12.0,0.,12.0
1979-03-01 06:24:18.950 ,3,0,0.,12.0,0.,12.0,0.,12.0,0.,12.0
1979-03-01 06:24:30.950 ,3,0,0.,12.0,0.,12.0,0.,12.0,0.,12.0
1979-03-01 06:24:42.950 ,4,0,0.,12.0,0.,12.0,0.,12.0,0.,12.0
1979-03-01 06:24:54.950 ,4,0,0.,12.0,0.,12.0,0.,12.0,0.,12.0
1979-03-01 06:25:06.950 ,5,0,0.,12.0,0.,12.0,0.,12.0,0.,12.0
1979-03-01 06:25:18.950 ,5,0,0.,12.0,0.,12.0,0.,12.0,0.,12.0
1979-03-01 06:25:30.950 ,6,0,0.,12.0,0.,12.0,0.,12.0,0.,12.0
1979-03-01 06:25:42.950 ,6,0,0.,12.0,0.,12.0,0.,12.0,0.,12.0
1979-03-01 06:25:54.950 ,7,0,0.,12.0,0.,12.0,0.,12.0,0.,12.0
1979-03-01 06:26:06.950 ,7,0,0.,12.0,0.,12.0,0.,12.0,0.,12.0
1979-03-01 06:26:18.950 ,7,0,0.,12.0,0.,12.0,0.,12.0,0.,12.0
1979-03-01 06:26:30.950 ,7,0,0.,12.0,0.,12.0,0.,12.0,0.,12.0
1979-03-01 06:26:42.950 ,6,0,0.,12.0,0.,12.0,0.,12.0,0.,12.0
1979-03-01 06:26:54.950 ,6,0,0.,12.0,0.,12.0,0.,12.0,0.,12.0
1979-03-01 06:27:06.950 ,5,0,0.,12.0,0.,12.0,0.,12.0,0.,12.0
1979-03-01 06:27:18.950 ,5,0,0.,12.0,0.,12.0,0.,12.0,0.,12.0
1979-03-01 06:27:30.950 ,4,0,0.,12.0,0.,12.0,0.,12.0,0.,12.0
1979-03-01 06:27:42.950 ,4,0,0.,12.0,0.,12.0,0.,12.0,0.,12.0
1979-03-01 06:27:54.950 ,3,0,0.,12.0,0.,12.0,0.,12.0,0.,12.0
1979-03-01 06:28:06.950 ,3,0,0.,12.0,0.,12.0,0.,12.0,0.,12.0
1979-03-01 06:28:18.950 ,2,0,0.,12.0,0.,12.0,0.,12.0,0.,12.0
1979-03-01 06:28:30.950 ,2,0,0.,12.0,0.,12.0,0.,12.0,0.,12.0
1979-03-01 06:28:42.950 ,1,0,0.,12.0,0.,12.0,0.,12.0,0.,12.0
1979-03-01 06:28:54.950 ,1,0,0.,12.0,0.,12.0,0.,12.0,0.,12.0
1979-03-01 06:29:06.950 ,0,0,0.,12.0,0.,12.0,0.,12.0,0.,12.0
1979-03-01 06:29:18.950 ,0,0,0.,12.0,0.,12.0,0.,12.0,0.,12.0
1979-03-01 06:29:30.950 ,0,0,0.,12.0,0.,12.0,0.,12.0,0.,12.0
1979-03-01 06:29:42.950 ,0,0,0.,12.0,0.,12.0,0.,12.0,0.,12.0
1979-03-01 06:29:54.950 ,1,0,0.,12.0,0.,12.0,0.,12.0,0.,12.0
1979-03-01 06:30:06.950 ,1,0,0.,12.0,0.,12.0,0.,12.0,0.,12.0
1979-03-01 06:30:18.950 ,2,0,0.,12.0,0.,12.0,0.,12.0,0.,12.0
1979-03-01 06:30:30.950 ,2,0,0.,12.0,0.,12.0,0.,12.0,0.,12.0
1979-03-01 06:30:42.950 ,3,0,0.,12.0,0.,12.0,0.,12.0,0.,12.0
1979-03-01 06:30:54.950 ,3,0,0.,12.0,0.,12.0,0.,12.0,0.,12.0
1979-03-01 06:31:06.950 ,4,0,0.,12.0,0.,12.0,0.,12.0,0.,12.0
1979-03-01 06:31:18.950 ,4,0,0.,12.0,0.,12.0,0.,12.0,0.,12.0
1979-03-01 06:31:30.950 ,5,0,0.,12.0,0.,12.0,0.,12.0,0.,12.0
1979-03-01 06:31:42.950 ,5,0,0.,12.0,0.,12.0,0.,12.0,0.,12.0
1979-03-01 06:31:54.950 ,6,0,0.,12.0,0.,12.0,0.,12.0,0.,12.0
1979-03-01 06:32:06.950 ,6,0,0.,12.0,0.,12.0,0.,12.0,0.,12.0
1979-03-01 06:32:18.950 ,7,0,0.,12.0,0.,12.0,0.,12.0,0.,12.0
1979-03-01 06:32:30.950 ,7,0,0.,12.0,0.,12.0,0.,12.0,0.,12.0
1979-03-01 06:32:42.950 ,7,0,0.,12.0,0.,12.0,0.,12.0,0.,12.0
1979-03-01 06:32:54.950 ,7,0,0.,12.0,0.,12.0,0.,12.0,0.,12.0
1979-03-01 06:33:06.950 ,6,0,0.,12.0,0.,12.0,0.,12.0,0.,12.0
1979-03-01 06:33:18.950 ,6,0,0.,12.0,0.,12.0,0.,12.0,0.,12.0
1979-03-01 06:33:30.950 ,5,0,0.,12.0,0.,12.0,0.,12.0,0.,12.0
1979-03-01 06:33:42.950 ,5,0,0.,12.0,0.,12.0,0.,12.0,0.,12.0
1979-03-01 06:33:54.950 ,4,0,0.,12.0,0.,12.0,0.,12.0,0.,12.0
1979-03-01 06:34:06.950 ,4,0,0.,12.0,0.,12.0,0.,12.0,0.,12.0
1979-03-01 06:34:18.950 ,3,0,0.,12.0,0.,12.0,0.,12.0,0.,12.0
1979-03-01 06:34:30.950 ,3,0,0.,12.0,0.,12.0,0.,12.0,0.,12.0
1979-03-01 06:34:42.950 ,2,0,0.,12.0,0.,12.0,0.,12.0,0.,12.0
1979-03-01 06:34:54.950 ,2,0,0.,12.0,0.,12.0,0.,12.0,0.,12.0
1979-03-01 06:35:06.950 ,1,0,0.,12.0,0.,12.0,0.,12.0,0.,12.0
1979-03-01 06:35:18.950 ,1,0,0.,12.0,0.,12.0,0.,12.0,0.,12.0
1979-03-01 06:35:30.950 ,0,0,0.,12.0,0.,12.0,0.,12.0,0.,12.0
1979-03-01 06:35:42.950 ,0,0,0.,12.0,0.,12.0,0.,12.0,0.,12.0
1979-03-01 06:35:54.950 ,0,0,0.,12.0,0.,12.0,0.,12.0,0.,12.0
1979-03-01 06:36:06.950 ,0,0,0.,12.0,0.,12.0,0.,12.0,0.,12.0
1979-03-01 06:36:18.950 ,1,0,0.,12.0,0.,12.0,0.,12.0,0.,12.0
1979-03-01 06:36:30.950 ,1,0,0.,12.0,0.,12.0,0.,12.0,0.,12.0
1979-03-01 06:36:42.950 ,2,0,0.,12.0,0.,12.0,0.,12.0,0.,12.0
1979-03-01 06:36:54.950 ,2,0,0.,12.0,0.,12.0,0.,12.0,0.,12.0
1979-03-01 06:37:06.950 ,3,0,0.,12.0,0.,12.0,0.,12.0,0.,12.0
1979-03-01 06:37:18.950 ,3,0,0.,12.0,0.,12.0,0.,12.0,0.,12.0
1979-03-01 06:37:30.950 ,4,0,0.,12.0,0.,12.0,0.,12.0,0.,12.0
1979-03-01 06:37:42.950 ,4,0,0.,12.0,0.,12.0,0.,12.0,0.,12.0
1979-03-01 06:37:54.950 ,5,0,0.,12.0,0.,12.0,0.,12.0,0.,12.0
1979-03-01 06:38:06.950 ,5,0,0.,12.0,0.,12.0,0.,12.0,0.,12.0
1979-03-01 06:38:18.950 ,6,0,0.,12.0,0.,12.0,0.,12.0,0.,12.0
1979-03-01 06:38:30.950 ,6,0,0.,12.0,0.,12.0,0.,12.0,0.,12.0
1979-03-01 06:38:42.950 ,7,0,0.,12.0,0.,12.0,0.,12.0,0.,12.0
1979-03-01 06:38:54.950 ,7,0,0.,12.0,0.,12.0,0.,12.0,0.,12.0
1979-03-01 06:39:06.950 ,7,0,0.,12.0,0.,12.0,0.,12.0,0.,12.0
1979-03-01 06:39:18.950 ,7,0,0.,12.0,0.,12.0,0.,12.0,0.,12.0
1979-03-01 06:39:30.950 ,6,0,0.,12.0,0.,12.0,0.,12.0,0.,12.0
1979-03-01 06:39:42.950 ,6,0,0.,12.0,0.,12.0,0.,12.0,0.,12.0
1979-03-01 06:39:54.950 ,5,0,0.,12.0,0.,12.0,0.,12.0,0.,12.0
1979-03-01 06:40:06.950 ,5,0,0.,12.0,0.,12.0,0.,12.0,0.,12.0
1979-03-01 06:40:18.950 ,4,0,0.,12.0,0.,12.0,0.,12.0,0.,12.0
1979-03-01 06:40:30.950 ,4,0,0.,12.0,0.,12.0,0.,12.0,0.,12.0
1979-03-01 06:40:42.950 ,3,0,0.,12.0,0.,12.0,0.,12.0,0.,12.0
1979-03-01 06:40:54.950 ,3,0,0.,12.0,0.,12.0,1.,12.0,0.,12.0
1979-03-01 06:41:06.950 ,2,0,0.,12.0,0.,12.0,0.,12.0,0.,12.0
1979-03-01 06:41:18.950 ,2,0,0.,12.0,0.,12.0,0.,12.0,0.,12.0
1979-03-01 06:41:30.950 ,1,0,0.,12.0,0.,12.0,0.,12.0,0.,12.0
1979-03-01 06:41:42.950 ,1,0,0.,12.0,0.,12.0,0.,12.0,0.,12.0
1979-03-01 06:41:54.950 ,0,0,0.,12.0,0.,12.0,0.,12.0,0.,12.0
1979-03-01 06:42:06.950 ,0,0,0.,12.0,0.,12.0,0.,12.0,0.,12.0
1979-03-01 06:42:18.950 ,0,0,0.,12.0,0.,12.0,0.,12.0,0.,12.0
1979-03-01 06:42:30.950 ,0,0,0.,12.0,0.,12.0,0.,12.0,0.,12.0
1979-03-01 06:42:42.950 ,1,0,0.,12.0,0.,12.0,0.,12.0,0.,12.0
1979-03-01 06:42:54.950 ,1,0,0.,12.0,0.,12.0,0.,12.0,0.,12.0
1979-03-01 06:43:06.950 ,2,0,0.,12.0,0.,12.0,0.,12.0,0.,12.0
1979-03-01 06:43:18.950 ,2,0,0.,12.0,0.,12.0,0.,12.0,0.,12.0
1979-03-01 06:43:30.950 ,3,0,0.,12.0,0.,12.0,0.,12.0,0.,12.0
1979-03-01 06:43:42.950 ,3,0,0.,12.0,0.,12.0,0.,12.0,0.,12.0
1979-03-01 06:43:54.950 ,4,0,0.,12.0,0.,12.0,0.,12.0,0.,12.0
1979-03-01 06:44:06.950 ,4,0,0.,12.0,0.,12.0,0.,12.0,0.,12.0
1979-03-01 06:44:18.950 ,5,0,0.,12.0,0.,12.0,0.,12.0,0.,12.0
1979-03-01 06:44:30.950 ,5,0,0.,12.0,0.,12.0,0.,12.0,0.,12.0
1979-03-01 06:44:42.950 ,6,0,0.,12.0,0.,12.0,0.,12.0,0.,12.0
1979-03-01 06:44:54.950 ,6,0,0.,12.0,0.,12.0,0.,12.0,0.,12.0
1979-03-01 06:45:06.950 ,7,0,0.,12.0,0.,12.0,0.,12.0,0.,12.0
1979-03-01 06:45:18.950 ,7,0,0.,12.0,0.,12.0,0.,12.0,0.,12.0
1979-03-01 06:45:30.950 ,7,0,0.,12.0,0.,12.0,0.,12.0,0.,12.0
1979-03-01 06:45:42.950 ,7,0,0.,12.0,0.,12.0,0.,12.0,0.,12.0
1979-03-01 06:45:54.950 ,6,0,0.,12.0,0.,12.0,0.,12.0,0.,12.0
1979-03-01 06:46:06.950 ,6,0,0.,12.0,0.,12.0,0.,12.0,0.,12.0
1979-03-01 06:46:18.950 ,5,0,0.,12.0,0.,12.0,0.,12.0,0.,12.0
1979-03-01 06:46:30.950 ,5,0,0.,12.0,0.,12.0,0.,12.0,0.,12.0
1979-03-01 06:46:42.950 ,4,0,0.,12.0,0.,12.0,0.,12.0,0.,12.0
1979-03-01 06:46:54.950 ,4,0,0.,12.0,0.,12.0,0.,12.0,0.,12.0
1979-03-01 06:47:06.950 ,3,0,0.,12.0,0.,12.0,0.,12.0,0.,12.0
1979-03-01 06:47:18.950 ,3,0,0.,12.0,0.,12.0,0.,12.0,0.,12.0
1979-03-01 06:47:30.950 ,2,0,0.,12.0,0.,12.0,0.,12.0,0.,12.0
1979-03-01 06:47:42.950 ,2,0,0.,12.0,0.,12.0,0.,12.0,0.,12.0
1979-03-01 06:47:54.950 ,1,0,0.,12.0,0.,12.0,0.,12.0,0.,12.0
1979-03-01 06:48:06.950 ,1,0,0.,12.0,0.,12.0,0.,12.0,0.,12.0
1979-03-01 06:48:18.950 ,0,0,0.,12.0,0.,12.0,0.,12.0,0.,12.0
1979-03-01 06:48:30.950 ,0,0,0.,12.0,0.,12.0,0.,12.0,0.,12.0
1979-03-01 06:48:42.950 ,0,0,0.,12.0,0.,12.0,0.,12.0,0.,12.0
1979-03-01 06:48:54.950 ,0,0,0.,12.0,0.,12.0,0.,12.0,0.,12.0
1979-03-01 06:49:06.950 ,1,0,0.,12.0,0.,12.0,0.,12.0,0.,12.0
1979-03-01 06:49:18.950 ,1,0,0.,12.0,0.,12.0,0.,12.0,0.,12.0
1979-03-01 06:49:30.950 ,2,0,0.,12.0,0.,12.0,0.,12.0,0.,12.0
1979-03-01 06:49:42.950 ,2,0,0.,12.0,0.,12.0,0.,12.0,0.,12.0
1979-03-01 06:49:54.950 ,3,0,0.,12.0,0.,12.0,0.,12.0,0.,12.0
1979-03-01 06:50:06.950 ,3,0,0.,12.0,0.,12.0,0.,12.0,0.,12.0
1979-03-01 06:50:18.950 ,4,0,0.,12.0,0.,12.0,0.,12.0,0.,12.0
1979-03-01 06:50:30.950 ,4,0,0.,12.0,0.,12.0,0.,12.0,0.,12.0
1979-03-01 06:50:42.950 ,5,0,0.,12.0,0.,12.0,0.,12.0,0.,12.0
1979-03-01 06:50:54.950 ,5,0,0.,12.0,0.,12.0,0.,12.0,0.,12.0
1979-03-01 06:51:06.950 ,6,0,0.,12.0,0.,12.0,0.,12.0,0.,12.0
1979-03-01 06:51:18.950 ,6,0,0.,12.0,0.,12.0,0.,12.0,0.,12.0
1979-03-01 06:51:30.950 ,7,0,0.,12.0,0.,12.0,0.,12.0,0.,12.0
1979-03-01 06:51:42.950 ,7,0,0.,12.0,0.,12.0,0.,12.0,0.,12.0
1979-03-01 06:51:54.950 ,7,0,0.,12.0,0.,12.0,0.,12.0,0.,12.0
1979-03-01 06:52:06.950 ,7,0,0.,12.0,0.,12.0,0.,12.0,0.,12.0
1979-03-01 06:52:18.950 ,6,0,0.,12.0,0.,12.0,0.,12.0,0.,12.0
1979-03-01 06:52:30.950 ,6,0,0.,12.0,0.,12.0,0.,12.0,0.,12.0
1979-03-01 06:52:42.950 ,5,0,0.,12.0,0.,12.0,0.,12.0,0.,12.0
1979-03-01 06:52:54.950 ,5,0,0.,12.0,0.,12.0,0.,12.0,0.,12.0
1979-03-01 06:53:06.950 ,4,0,0.,12.0,0.,12.0,0.,12.0,0.,12.0
1979-03-01 06:53:18.950 ,4,0,0.,12.0,0.,12.0,0.,12.0,0.,12.0
1979-03-01 06:53:30.950 ,3,0,0.,12.0,0.,12.0,0.,12.0,0.,12.0
1979-03-01 06:53:42.950 ,3,0,0.,12.0,0.,12.0,0.,12.0,0.,12.0
1979-03-01 06:53:54.950 ,2,0,0.,12.0,0.,12.0,0.,12.0,0.,12.0
1979-03-01 06:54:06.950 ,2,0,0.,12.0,0.,12.0,0.,12.0,0.,12.0
1979-03-01 06:54:18.950 ,1,0,0.,12.0,0.,12.0,0.,12.0,0.,12.0
1979-03-01 06:54:30.950 ,1,0,0.,12.0,0.,12.0,0.,12.0,0.,12.0
1979-03-01 06:54:42.950 ,0,0,0.,12.0,0.,12.0,0.,12.0,0.,12.0
1979-03-01 06:54:54.950 ,0,0,0.,12.0,0.,12.0,0.,12.0,0.,12.0
1979-03-01 06:55:06.950 ,0,0,0.,12.0,0.,12.0,0.,12.0,0.,12.0
1979-03-01 06:55:18.950 ,0,0,0.,12.0,0.,12.0,0.,12.0,0.,12.0
1979-03-01 06:55:30.950 ,1,0,0.,12.0,0.,12.0,0.,12.0,0.,12.0
1979-03-01 06:55:42.950 ,1,0,0.,12.0,0.,12.0,0.,12.0,0.,12.0
1979-03-01 06:55:54.950 ,2,0,0.,12.0,0.,12.0,0.,12.0,0.,12.0
1979-03-01 06:56:06.950 ,2,0,0.,12.0,0.,12.0,0.,12.0,0.,12.0
1979-03-01 06:56:18.950 ,3,0,0.,12.0,0.,12.0,0.,12.0,0.,12.0
1979-03-01 06:56:30.950 ,3,0,0.,12.0,0.,12.0,0.,12.0,0.,12.0
1979-03-01 06:56:42.950 ,4,0,0.,12.0,0.,12.0,0.,12.0,0.,12.0
1979-03-01 06:56:54.950 ,4,0,0.,12.0,0.,12.0,0.,12.0,0.,12.0
1979-03-01 06:57:06.950 ,5,0,0.,12.0,0.,12.0,0.,12.0,0.,12.0
1979-03-01 06:57:18.950 ,5,0,0.,12.0,0.,12.0,0.,12.0,0.,12.0
1979-03-01 06:57:30.950 ,6,0,0.,12.0,0.,12.0,0.,12.0,0.,12.0
1979-03-01 06:57:42.950 ,6,0,0.,12.0,0.,12.0,0.,12.0,0.,12.0
1979-03-01 06:57:54.950 ,7,0,0.,12.0,0.,12.0,0.,12.0,0.,12.0
1979-03-01 06:58:06.950 ,7,0,0.,12.0,0.,12.0,0.,12.0,0.,12.0
1979-03-01 06:58:18.950 ,7,0,0.,12.0,0.,12.0,0.,12.0,0.,12.0
1979-03-01 06:58:30.950 ,7,0,0.,12.0,0.,12.0,0.,12.0,0.,12.0
1979-03-01 06:58:42.950 ,6,0,0.,12.0,0.,12.0,0.,12.0,0.,12.0
1979-03-01 06:58:54.950 ,6,0,0.,12.0,0.,12.0,0.,12.0,0.,12.0
1979-03-01 06:59:06.950 ,5,0,0.,12.0,0.,12.0,0.,12.0,0.,12.0
1979-03-01 06:59:18.950 ,5,0,0.,12.0,0.,12.0,0.,12.0,0.,12.0
1979-03-01 06:59:30.950 ,4,0,0.,12.0,0.,12.0,0.,12.0,0.,12.0
1979-03-01 06:59:42.950 ,4,0,0.,12.0,0.,12.0,0.,12.0,0.,12.0
1979-03-01 06:59:54.950 ,3,0,0.,12.0,0.,12.0,0.,12.0,1.,12.0
1979-03-01 07:00:06.950 ,3,0,0.,12.0,0.,12.0,0.,12.0,0.,12.0
1979-03-01 07:00:18.950 ,2,0,0.,12.0,0.,12.0,0.,12.0,0.,12.0
1979-03-01 07:00:30.950 ,2,0,0.,12.0,0.,12.0,0.,12.0,0.,12.0
1979-03-01 07:00:42.950 ,1,0,0.,12.0,0.,12.0,0.,12.0,0.,12.0
1979-03-01 07:00:54.950 ,1,0,0.,12.0,0.,12.0,0.,12.0,0.,12.0
1979-03-01 07:01:06.950 ,0,0,0.,12.0,0.,12.0,0.,12.0,0.,12.0
1979-03-01 07:01:18.950 ,0,0,0.,12.0,0.,12.0,0.,12.0,0.,12.0
1979-03-01 07:01:30.950 ,0,0,0.,12.0,0.,12.0,0.,12.0,0.,12.0
1979-03-01 07:01:42.950 ,0,0,0.,12.0,0.,12.0,0.,12.0,0.,12.0
1979-03-01 07:01:54.950 ,1,0,0.,12.0,0.,12.0,0.,12.0,0.,12.0
1979-03-01 07:02:06.950 ,1,0,0.,12.0,0.,12.0,0.,12.0,0.,12.0
1979-03-01 07:02:18.950 ,2,0,0.,12.0,0.,12.0,0.,12.0,0.,12.0
1979-03-01 07:02:30.950 ,2,0,0.,12.0,0.,12.0,0.,12.0,0.,12.0
1979-03-01 07:02:42.950 ,3,0,0.,12.0,0.,12.0,0.,12.0,0.,12.0
1979-03-01 07:02:54.950 ,3,0,0.,12.0,0.,12.0,0.,12.0,0.,12.0
1979-03-01 07:03:06.950 ,4,0,0.,12.0,0.,12.0,0.,12.0,0.,12.0
1979-03-01 07:03:18.950 ,4,0,0.,12.0,0.,12.0,0.,12.0,0.,12.0
1979-03-01 07:03:30.950 ,5,0,0.,12.0,0.,12.0,0.,12.0,0.,12.0
1979-03-01 07:03:42.950 ,5,0,0.,12.0,0.,12.0,0.,12.0,0.,12.0
1979-03-01 07:03:54.950 ,6,0,0.,12.0,0.,12.0,0.,12.0,0.,12.0
1979-03-01 07:04:06.950 ,6,0,0.,12.0,0.,12.0,0.,12.0,0.,12.0
1979-03-01 07:04:18.950 ,7,0,0.,12.0,0.,12.0,0.,12.0,0.,12.0
1979-03-01 07:04:30.950 ,7,0,0.,12.0,0.,12.0,0.,12.0,0.,12.0
1979-03-01 07:04:42.950 ,7,0,0.,12.0,0.,12.0,0.,12.0,0.,12.0
1979-03-01 07:04:54.950 ,7,0,0.,12.0,0.,12.0,0.,12.0,0.,12.0
1979-03-01 07:05:06.950 ,6,0,0.,12.0,0.,12.0,0.,12.0,0.,12.0
1979-03-01 07:05:18.950 ,6,0,0.,12.0,0.,12.0,0.,12.0,0.,12.0
1979-03-01 07:05:30.950 ,5,0,0.,12.0,0.,12.0,0.,12.0,0.,12.0
1979-03-01 07:05:42.950 ,5,0,0.,12.0,0.,12.0,0.,12.0,0.,12.0
1979-03-01 07:05:54.950 ,4,0,0.,12.0,0.,12.0,0.,12.0,0.,12.0
1979-03-01 07:06:06.950 ,4,0,0.,12.0,0.,12.0,0.,12.0,0.,12.0
1979-03-01 07:06:18.950 ,3,0,0.,12.0,0.,12.0,0.,12.0,0.,12.0
1979-03-01 07:06:30.950 ,3,0,0.,12.0,0.,12.0,0.,12.0,0.,12.0
1979-03-01 07:06:42.950 ,2,0,0.,12.0,0.,12.0,0.,12.0,0.,12.0
1979-03-01 07:06:54.950 ,2,0,0.,12.0,0.,12.0,0.,12.0,0.,12.0
1979-03-01 07:07:06.950 ,1,0,0.,12.0,0.,12.0,0.,12.0,0.,12.0
1979-03-01 07:07:18.950 ,1,0,0.,12.0,0.,12.0,0.,12.0,0.,12.0
1979-03-01 07:07:30.950 ,0,0,1.,12.0,0.,12.0,0.,12.0,0.,12.0
1979-03-01 07:07:42.950 ,0,0,0.,12.0,0.,12.0,0.,12.0,0.,12.0
1979-03-01 07:07:54.950 ,0,0,0.,12.0,0.,12.0,0.,12.0,0.,12.0
1979-03-01 07:08:06.950 ,0,0,0.,12.0,0.,12.0,0.,12.0,0.,12.0
1979-03-01 07:08:18.950 ,1,0,0.,12.0,0.,12.0,0.,12.0,0.,12.0
1979-03-01 07:08:30.950 ,1,0,0.,12.0,0.,12.0,0.,12.0,0.,12.0
1979-03-01 07:08:42.950 ,2,0,0.,12.0,0.,12.0,0.,12.0,0.,12.0
1979-03-01 07:08:54.950 ,2,0,0.,12.0,0.,12.0,0.,12.0,0.,12.0
1979-03-01 07:09:06.950 ,3,0,0.,12.0,0.,12.0,0.,12.0,0.,12.0
1979-03-01 07:09:18.950 ,3,0,0.,12.0,0.,12.0,0.,12.0,0.,12.0
1979-03-01 07:09:30.950 ,4,0,0.,12.0,0.,12.0,0.,12.0,0.,12.0
1979-03-01 07:09:42.950 ,4,0,0.,12.0,0.,12.0,0.,12.0,0.,12.0
1979-03-01 07:09:54.950 ,5,0,0.,12.0,0.,12.0,0.,12.0,0.,12.0
1979-03-01 07:10:06.950 ,5,0,0.,12.0,0.,12.0,0.,12.0,0.,12.0
1979-03-01 07:10:18.950 ,6,0,0.,12.0,0.,12.0,0.,12.0,0.,12.0
1979-03-01 07:10:30.950 ,6,0,0.,12.0,0.,12.0,0.,12.0,0.,12.0
1979-03-01 07:10:42.950 ,7,0,0.,12.0,0.,12.0,0.,12.0,0.,12.0
1979-03-01 07:10:54.950 ,7,0,0.,12.0,0.,12.0,0.,12.0,0.,12.0
1979-03-01 07:11:06.950 ,7,0,0.,12.0,0.,12.0,0.,12.0,0.,12.0
1979-03-01 07:11:18.950 ,7,0,0.,12.0,0.,12.0,0.,12.0,0.,12.0
1979-03-01 07:11:30.950 ,6,0,0.,12.0,0.,12.0,0.,12.0,0.,12.0
1979-03-01 07:11:42.950 ,6,0,0.,12.0,0.,12.0,0.,12.0,0.,12.0
1979-03-01 07:11:54.950 ,5,0,0.,12.0,0.,12.0,0.,12.0,0.,12.0
1979-03-01 07:12:06.950 ,5,0,0.,12.0,0.,12.0,0.,12.0,0.,12.0
1979-03-01 07:12:18.950 ,4,0,0.,12.0,0.,12.0,0.,12.0,0.,12.0
1979-03-01 07:12:30.950 ,4,0,0.,12.0,0.,12.0,0.,12.0,0.,12.0
1979-03-01 07:12:42.950 ,3,0,0.,12.0,0.,12.0,0.,12.0,0.,12.0
1979-03-01 07:12:54.950 ,3,0,0.,12.0,0.,12.0,0.,12.0,0.,12.0
1979-03-01 07:13:06.950 ,2,0,0.,12.0,0.,12.0,0.,12.0,0.,12.0
1979-03-01 07:13:18.950 ,2,0,0.,12.0,0.,12.0,0.,12.0,0.,12.0
1979-03-01 07:13:30.950 ,1,0,0.,12.0,0.,12.0,0.,12.0,0.,12.0
1979-03-01 07:13:42.950 ,1,0,1.,12.0,0.,12.0,0.,12.0,0.,12.0
1979-03-01 07:13:54.950 ,0,0,0.,12.0,0.,12.0,0.,12.0,0.,12.0
1979-03-01 07:14:06.950 ,0,0,0.,12.0,0.,12.0,0.,12.0,0.,12.0
1979-03-01 07:14:18.950 ,0,0,0.,12.0,0.,12.0,0.,12.0,0.,12.0
1979-03-01 07:14:30.950 ,0,0,0.,12.0,0.,12.0,0.,12.0,0.,12.0
1979-03-01 07:14:42.950 ,1,0,0.,12.0,0.,12.0,0.,12.0,0.,12.0
1979-03-01 07:14:54.950 ,1,0,0.,12.0,0.,12.0,0.,12.0,0.,12.0
1979-03-01 07:15:06.950 ,2,0,0.,12.0,0.,12.0,0.,12.0,0.,12.0
1979-03-01 07:15:18.950 ,2,0,0.,12.0,0.,12.0,0.,12.0,0.,12.0
1979-03-01 07:15:30.950 ,3,0,0.,12.0,0.,12.0,0.,12.0,0.,12.0
1979-03-01 07:15:42.950 ,3,0,0.,12.0,0.,12.0,0.,12.0,0.,12.0
1979-03-01 07:15:54.950 ,4,0,0.,12.0,0.,12.0,0.,12.0,0.,12.0
1979-03-01 07:16:06.950 ,4,0,0.,12.0,0.,12.0,0.,12.0,0.,12.0
1979-03-01 07:16:18.950 ,5,0,0.,12.0,0.,12.0,0.,12.0,0.,12.0
1979-03-01 07:16:30.950 ,5,0,0.,12.0,0.,12.0,0.,12.0,0.,12.0
1979-03-01 07:16:42.950 ,6,0,0.,12.0,0.,12.0,0.,12.0,0.,12.0
1979-03-01 07:16:54.950 ,6,0,0.,12.0,0.,12.0,0.,12.0,0.,12.0
1979-03-01 07:17:06.950 ,7,0,0.,12.0,0.,12.0,0.,12.0,0.,12.0
1979-03-01 07:17:18.950 ,7,0,0.,12.0,0.,12.0,0.,12.0,0.,12.0
1979-03-01 07:17:30.950 ,7,0,0.,12.0,0.,12.0,0.,12.0,0.,12.0
1979-03-01 07:17:42.950 ,7,0,0.,12.0,0.,12.0,0.,12.0,0.,12.0
1979-03-01 07:17:54.950 ,6,0,0.,12.0,0.,12.0,0.,12.0,0.,12.0
1979-03-01 07:18:06.950 ,6,0,0.,12.0,0.,12.0,0.,12.0,0.,12.0
1979-03-01 07:18:18.950 ,5,0,0.,12.0,0.,12.0,0.,12.0,0.,12.0
1979-03-01 07:18:30.950 ,5,0,0.,12.0,0.,12.0,0.,12.0,0.,12.0
1979-03-01 07:18:42.950 ,4,0,0.,12.0,0.,12.0,0.,12.0,0.,12.0
1979-03-01 07:18:54.950 ,4,0,0.,12.0,0.,12.0,0.,12.0,0.,12.0
1979-03-01 07:19:06.950 ,3,0,0.,12.0,0.,12.0,0.,12.0,0.,12.0
1979-03-01 07:19:18.950 ,3,0,0.,12.0,0.,12.0,0.,12.0,0.,12.0
1979-03-01 07:19:30.950 ,2,0,0.,12.0,0.,12.0,0.,12.0,0.,12.0
1979-03-01 07:19:42.950 ,2,0,0.,12.0,0.,12.0,0.,12.0,0.,12.0
1979-03-01 07:19:54.950 ,1,0,0.,12.0,0.,12.0,0.,12.0,0.,12.0
1979-03-01 07:20:06.950 ,1,0,0.,12.0,0.,12.0,0.,12.0,0.,12.0
1979-03-01 07:20:18.950 ,0,0,0.,12.0,0.,12.0,0.,12.0,0.,12.0
1979-03-01 07:20:30.950 ,0,0,0.,12.0,0.,12.0,0.,12.0,0.,12.0
1979-03-01 07:20:42.950 ,0,0,0.,12.0,0.,12.0,0.,12.0,0.,12.0
1979-03-01 07:20:54.950 ,0,0,0.,12.0,0.,12.0,0.,12.0,0.,12.0
1979-03-01 07:21:06.950 ,1,0,0.,12.0,0.,12.0,0.,12.0,0.,12.0
1979-03-01 07:21:18.950 ,1,0,0.,12.0,0.,12.0,0.,12.0,0.,12.0
1979-03-01 07:21:30.950 ,2,0,0.,12.0,0.,12.0,0.,12.0,0.,12.0
1979-03-01 07:21:42.950 ,2,0,0.,12.0,0.,12.0,0.,12.0,0.,12.0
1979-03-01 07:21:54.950 ,3,0,0.,12.0,0.,12.0,0.,12.0,0.,12.0
1979-03-01 07:22:06.950 ,3,0,0.,12.0,0.,12.0,0.,12.0,0.,12.0
1979-03-01 07:22:18.950 ,4,0,0.,12.0,0.,12.0,0.,12.0,0.,12.0
1979-03-01 07:22:30.950 ,4,0,0.,12.0,0.,12.0,0.,12.0,0.,12.0
1979-03-01 07:22:42.950 ,5,0,0.,12.0,0.,12.0,0.,12.0,0.,12.0
1979-03-01 07:22:54.950 ,5,0,0.,12.0,0.,12.0,0.,12.0,0.,12.0
1979-03-01 07:23:06.950 ,0,0,0.,12.0,0.,12.0,0.,12.0,0.,12.0
1979-03-01 07:23:18.950 ,0,0,0.,12.0,0.,12.0,0.,12.0,0.,12.0
1979-03-01 07:23:30.950 ,7,0,0.,12.0,0.,12.0,0.,12.0,0.,12.0
1979-03-01 07:23:42.950 ,7,0,0.,12.0,0.,12.0,0.,12.0,0.,12.0
1979-03-01 07:23:54.950 ,7,0,0.,12.0,0.,12.0,0.,12.0,0.,12.0
1979-03-01 07:24:06.950 ,7,0,0.,12.0,0.,12.0,0.,12.0,0.,12.0
1979-03-01 07:24:18.950 ,6,0,0.,12.0,0.,12.0,0.,12.0,0.,12.0
1979-03-01 07:24:30.950 ,6,0,0.,12.0,0.,12.0,0.,12.0,0.,12.0
1979-03-01 07:24:42.950 ,0,0,0.,12.0,1.,12.0,0.,12.0,0.,12.0
1979-03-01 07:24:54.950 ,0,0,0.,12.0,0.,12.0,0.,12.0,0.,12.0
1979-03-01 07:25:06.950 ,0,0,0.,12.0,0.,12.0,0.,12.0,0.,12.0
1979-03-01 07:25:18.950 ,0,0,0.,12.0,0.,12.0,0.,12.0,0.,12.0
1979-03-01 07:25:30.950 ,3,0,0.,12.0,0.,12.0,0.,12.0,0.,12.0
1979-03-01 07:25:42.950 ,3,0,0.,12.0,0.,12.0,0.,12.0,0.,12.0
1979-03-01 07:25:54.950 ,2,0,0.,12.0,0.,12.0,0.,12.0,0.,12.0
1979-03-01 07:26:06.950 ,2,0,0.,12.0,0.,12.0,0.,12.0,0.,12.0
1979-03-01 07:26:18.950 ,1,0,0.,12.0,0.,12.0,0.,12.0,0.,12.0
1979-03-01 07:26:30.950 ,1,0,0.,12.0,0.,12.0,0.,12.0,0.,12.0
1979-03-01 07:26:42.950 ,0,0,0.,12.0,0.,12.0,0.,12.0,0.,12.0
1979-03-01 07:26:54.950 ,0,0,0.,12.0,0.,12.0,0.,12.0,0.,12.0